THORAD DELTA 1 DEB, 8399

Orbit data source: Space-Track

THORAD DELTA 1 DEB, 8399 is space debris in SSO originally from a launch on Fri, 15 Nov 1974 UTC launched from the Air Force Western Test Range (AFWTR). Debris objects in space refer to the collection of defunct objects orbiting the Earth. Examples of debris include non-operational satellites, rocket bodies, and fragments generated from explosions, collisions, or faulty payload assembly.

Loading next visibility...
Identifier
8399, 1974-089CB
Orbit
SSO
Country
Flag of USUS
Related business
Manufacturer
Unknown
Mission
Spacecraft
Bus & Motor
Unknown
Mass
Unknown
Launch date (UTC)
1974-11-15 (52 years ago)
Launch vehicle
Unknown
Launch site
Air Force Western Test Range (AFWTR)
Object type
Payload
Rocket body
Debris
Shape & HBR
Unknown shape, 0.2 m
Radar Cross Section
Medium (>0.1 m² and <1 m²)

Expand to show TLE details & history
Last TLE update: 2 days ago

TLE from 2 days ago
0 THORAD DELTA 1 DEB
1  8399U 74089CB  26171.40170274  .00000036  00000-0  57949-3 0  9995
2  8399 101.7483 148.2181 0155444 312.9216 203.3718 12.38899144335528
Epoch: 2026-06-20T09:38Z
TLE epoch observation values (Epoch: 2026-06-20T09:38:27.116Z)
Latitude
23.88006°
Longitude
-79.75433°
Altitude
1,626.732 km
Speed
7.009 km/s
True Right ascension
22h 13m 54s
True Declination
23° 46' 01"
Sunlit
Object was in daylight at epoch
Visualization orbit readout
Latitude
Unknown
Longitude
Unknown
Altitude
Unknown
Speed
Unknown
Apparent Right ascension
Unknown
Apparent Declination
Unknown
Sunlit
N/A
Visualization observer readout
Local Sidereal Time
01:06:06
Azimuth
Unknown
Elevation
Unknown
Doppler factor
Unknown
Orbital elements
Apogee altitude
1,631.432 km
Perigee altitude
1,386.236 km
Semi-major axis
7,886.971 km
Eccentricity
0.01554
Inclination
101.7483°
RAAN
148.2181°
Arg. of periapsis
312.9216°
True anomaly
202.67759°
Mean anomaly
203.3718°
Eccentric anomaly
203.02347°
Mean motion
3.09869 °/min
Orbital period
116.18 mins
BSTAR
0.00057949
Loading maneuver chart data...
Computing Atmospheric mass density...

Documentation

Showing up to 5 results
|